Location: Bothwell
(42.3833°S, 147.0000°E)
Time: 20:04:59
(UTC+11:00)

AO-85 - Pass Details

Date: 02 October 2022
Orbit: 513 x 757 km, 64.8° (Epoch: 24 November)

Event Time Altitude Azimuth Distance (km) Brightness Sun altitude
Rises 05:25:34 0° 210° (SSW) 3,099 ? -15.1°
Reaches altitude 10° 05:27:56 10° 205° (SSW) 2,210 ? -14.7°
Maximum altitude 05:32:56 54° 128° (SE) 903 ? -13.8°
Drops below altitude 10° 05:38:06 10° 50° (NE) 2,283 ? -12.9°
Sets 05:40:34 0° 45° (NE) 3,210 ? -12.4°
